Location: *
(53.4003°S, 165.3236°W)
Time: 02:34:28
(UTC+00:00)

Cosmos 2082 Rocket - Pass Details

Date: 11 December 2023
Orbit: 832 x 853 km, 71.0° (Epoch: 24 February)

Event Time Altitude Azimuth Distance (km) Brightness Sun altitude
Rises 12:08:16 0° 275° (W) 3,436 5.1 -11.9°
Reaches altitude 10° 12:11:19 10° 260° (W) 2,508 4.6 -11.8°
Maximum altitude 12:15:43 22° 210° (SSW) 1,812 4.5 -11.6°
Drops below altitude 10° 12:20:11 10° 159° (SSE) 2,525 6.3 -11.4°
Sets 12:23:15 0° 144° (SE) 3,465 7.1 -11.2°
